Temperature
27 28 28 28 28 28 28 28 28 29 29 29 28 27 25 24 23 22 22 21 20 20 20 19 19 19 19 19 19 18 18 18 17 17 17 17 17 17 17 17 17 17 17 16
26 27 27 27 27 28 28 28 28 28 28 28 27 25 24 23 23 22 21 21 20 19 19 19 18 18 18 18 18 18 18 17 17 17 17 17 17 17 17 17 17 17 16 16
25 26 26 26 27 27 27 28 28 28 28 27 26 25 24 23 22 22 21 20 19 19 18 18 18 18 18 18 17 17 17 17 17 17 17 16 16 16 16 16 16 16 16 16
25 24 24 27 27 27 27 27 27 27 26 26 25 24 23 22 22 21 20 20 19 19 18 18 18 17 17 17 17 17 17 17 16 16 16 16 16 16 16 16 16 16 16 15
24 24 25 26 26 26 26 26 26 26 26 25 23 22 22 21 21 20 20 19 18 18 18 18 17 17 17 17 17 16 16 16 16 16 16 15 16 16 16 15 15 15 15 15
23 23 24 26 25 25 25 25 25 25 24 24 23 24 24 21 20 19 18 18 18 18 17 17 17 16 16 16 16 16 16 16 16 15 15 15 15 15 15 15 15 15 14 14
22 23 24 25 24 24 24 24 23 23 23 22 23 23 21 19 18 18 17 17 17 17 17 16 16 16 16 16 16 16 16 15 15 15 15 15 15 15 14 14 14 14 14 14
22 22 23 23 23 23 23 22 22 22 22 21 20 19 19 18 17 17 16 16 16 16 16 16 15 15 15 15 15 15 15 15 15 15 15 14 14 14 14 14 14 14 13 13
22 22 21 20 21 20 20 21 20 20 20 19 19 18 18 17 17 16 16 15 15 15 15 15 15 15 15 15 14 14 14 14 14 14 14 14 14 14 13 13 13 13 13 13
21 21 20 20 19 19 19 19 19 19 19 18 18 18 17 17 16 16 15 15 15 15 14 14 14 14 14 14 14 14 14 14 14 14 13 13 13 13 13 13 13 13 13 13
19 20 19 19 18 18 17 18 18 18 18 17 17 17 16 16 15 15 15 14 14 14 14 13 13 13 13 13 13 13 13 13 13 13 13 13 13 13 13 13 13 13 13 13
19 19 19 18 17 17 17 17 17 17 16 16 16 16 15 15 15 14 14 14 14 13 13 13 13 13 13 13 13 13 12 12 13 13 13 13 12 12 12 12 12 12 12 12
17 17 17 16 16 16 16 16 16 16 15 15 15 15 15 14 14 14 13 13 13 13 13 12 12 12 12 12 12 12 12 12 12 12 12 12 12 12 12 12 12 12 12 12
15 15 15 15 15 15 15 15 15 15 15 14 14 14 14 13 13 13 13 13 13 12 12 12 12 12 12 12 12 12 11 12 12 12 12 12 12 12 12 12 12 11 11 11
15 15 15 15 14 14 14 14 14 14 14 14 14 13 13 13 13 12 12 12 12 12 12 12 12 11 11 11 11 11 11 11 11 11 11 12 12 12 11 11 11 11 11 11
14 14 14 14 14 14 14 14 14 14 14 13 13 13 13 12 12 12 12 12 12 12 11 11 11 11 11 11 11 11 11 11 11 11 11 11 11 11 11 11 11 11 11 11
14 14 14 14 14 14 14 14 14 13 13 13 12 12 12 12 12 12 11 11 11 11 11 11 11 11 11 11 11 11 11 11 11 11 11 11 11 11 11 11 11 11 11 10
14 14 14 14 14 13 13 13 13 13 13 12 12 12 12 12 11 11 11 11 11 11 10 10 10 10 10 10 11 11 11 11 11 11 11 11 11 11 11 11 10 10 10 10
14 14 14 13 13 13 13 13 12 12 12 12 12 11 11 11 11 11 11 11 10 10 10 10 10 10 10 10 10 10 11 11 11 11 10 10 10 10 10 10 10 10 10 10
13 13 13 13 13 13 13 12 12 12 12 11 11 11 11 11 11 11 11 11 10 10 10 10 10 10 10 10 10 10 11 11 11 11 10 10 10 10 10 10 10 10 10 9
13 13 13 13 12 12 12 12 12 12 12 11 11 11 11 11 11 11 10 10 10 10 10 10 10 10 10 10 10 10 10 10 10 10 10 10 10 10 9 9 9 9 9 9
13 13 12 12 12 12 12 12 12 12 11 11 11 11 10 10 10 10 10 10 10 10 10 10 10 10 10 10 10 10 10 10 10 10 9 9 9 9 9 9 9 9 9 8
12 12 12 12 12 12 11 11 11 11 11 11 11 11 11 11 11 11 10 10 10 10 10 10 10 10 10 10 10 10 10 9 9 9 9 9 9 9 9 8 8 8 8 8
11 11 11 12 11 11 11 11 11 11 11 11 10 10 10 11 11 11 10 10 10 10 10 10 10 10 10 10 10 10 9 9 9 9 9 9 9 9 8 8 8 8 8 8
11 11 11 11 11 11 11 11 10 10 11 11 10 10 10 10 10 10 10 10 10 10 10 10 10 10 10 9 9 9 9 9 9 9 9 9 8 8 8 8 8 8 7 7
11 11 11 11 11 11 11 10 11 11 11 10 10 10 10 10 10 10 10 10 10 10 10 9 9 10 9 9 9 9 9 9 9 9 9 8 8 8 8 7 7 7 7 7
11 11 10 11 10 11 11 11 11 11 10 10 10 10 10 10 10 10 10 10 10 10 10 10 10 10 9 9 9 9 9 9 8 8 8 8 8 7 7 7 7 6 6 6
Wind_Speed
14 12 11 13 15 16 18 18 18 15 14 11 8 7 5 3 2 2 3 3 3 4 4 6 6 6 7 7 7 8 9 9 9 8 8 7 6 6 6 6 7 6 6 6
14 14 14 15 15 16 18 18 18 16 13 8 6 5 5 5 4 3 3 3 3 3 4 6 6 6 6 6 7 7 8 8 8 7 7 7 7 6 6 6 6 6 6 6
13 13 13 18 17 17 16 15 15 16 11 7 7 7 7 5 5 4 3 3 3 3 4 5 6 6 6 6 7 7 8 8 8 8 7 7 7 6 6 6 6 6 6 6
11 11 17 10 6 11 13 13 12 10 8 7 6 5 5 5 5 4 3 3 3 3 3 4 5 5 6 6 7 7 7 7 7 7 7 6 6 6 6 5 5 5 6 6
11 15 15 10 7 8 11 12 10 10 9 7 4 4 5 5 4 3 3 3 3 3 3 3 5 5 5 6 6 6 6 6 6 6 6 7 7 6 5 5 5 5 5 5
11 14 14 7 6 5 8 11 7 7 8 7 7 8 5 4 3 2 2 2 3 3 3 4 4 5 5 5 6 6 5 5 5 5 5 6 5 5 4 4 4 4 4 4
15 14 11 2 4 6 10 5 3 5 7 8 8 4 1 4 3 3 3 3 3 3 3 3 4 4 4 4 4 4 4 4 4 4 4 4 4 4 4 3 3 4 4 4
13 15 11 2 5 7 3 1 1 3 4 5 3 2 3 4 4 4 3 3 4 3 3 3 3 3 3 3 2 2 3 4 3 3 3 3 4 3 3 3 3 4 4 4
8 6 1 1 3 3 3 3 3 3 3 3 3 4 4 4 4 4 3 3 3 4 3 3 2 3 3 2 2 2 3 3 3 3 2 2 3 3 3 3 3 3 3 4
7 6 5 4 3 3 3 4 4 3 3 3 4 4 4 4 3 3 3 3 4 4 4 3 2 2 3 3 3 3 3 3 3 3 2 2 2 2 2 3 3 3 3 4
9 8 6 5 4 4 4 3 3 3 3 3 4 4 3 3 3 3 3 3 4 4 4 3 3 2 3 2 2 3 3 3 3 3 2 2 1 0 1 1 1 3 3 3
9 7 7 7 5 5 4 4 3 2 3 3 4 4 4 3 2 2 3 3 4 4 3 3 3 2 2 2 2 2 3 2 2 1 2 1 1 1 2 1 2 2 4 3
8 8 7 7 6 5 4 4 3 3 4 4 4 4 4 3 3 3 4 4 4 4 3 3 3 2 2 2 2 2 2 2 1 2 2 2 1 1 1 0 1 0 1 2
6 6 7 6 5 5 4 4 4 4 4 4 4 4 4 4 4 4 4 4 4 4 3 3 2 2 2 2 2 2 2 2 2 1 1 1 1 1 1 1 0 0 1 2
7 7 7 5 4 4 5 5 5 5 5 5 5 5 5 5 4 3 3 4 4 4 3 3 3 2 1 1 2 2 1 1 1 1 1 1 1 1 1 1 1 1 1 2
6 5 5 5 5 5 6 7 6 6 6 5 5 5 5 5 5 4 4 5 5 5 4 3 3 2 2 2 2 2 2 2 1 1 1 1 1 1 1 1 1 1 1 1
6 6 6 7 6 6 6 6 6 6 6 6 6 6 6 6 5 5 4 4 4 4 4 3 2 2 2 1 2 2 2 2 3 1 1 0 1 1 1 1 1 1 1 2
6 6 7 7 6 6 6 5 5 5 6 6 6 7 7 7 6 6 5 4 4 3 3 3 3 2 2 2 1 1 1 1 1 1 0 0 1 1 2 1 1 1 1 1
4 4 5 6 6 6 6 6 6 5 6 7 7 7 6 5 5 6 5 4 4 4 3 3 3 3 2 2 1 1 1 1 1 1 0 0 1 1 1 1 2 2 1 2
3 4 5 6 5 6 6 6 6 6 6 7 7 7 6 6 6 6 5 4 3 3 4 4 4 3 2 2 1 1 1 0 0 0 0 1 1 1 1 1 2 2 2 2
5 5 5 6 6 5 5 6 7 7 7 7 7 6 6 6 6 6 5 4 4 3 4 4 3 2 1 0 1 1 1 1 1 1 1 1 2 1 1 1 2 2 2 2
4 5 5 5 6 6 5 6 6 7 7 7 6 6 6 6 6 5 5 3 4 4 3 3 3 2 1 1 1 1 0 0 1 1 1 2 2 2 2 2 2 2 3 3
4 5 5 5 6 6 6 6 6 6 6 6 6 5 5 4 4 4 4 3 4 4 3 2 3 2 2 2 1 1 0 1 1 2 2 2 2 2 2 3 3 3 3 3
5 5 5 6 6 6 6 5 5 5 6 5 5 4 4 4 3 3 3 5 4 4 2 3 3 2 3 1 1 1 1 1 2 2 2 2 2 2 3 3 3 4 4 4
5 5 6 6 6 5 5 6 6 6 5 4 4 4 4 3 3 3 4 5 5 5 3 4 5 4 3 1 1 1 1 2 2 3 3 3 3 3 3 3 3 3 4 4
5 5 5 5 4 4 5 4 4 4 4 4 3 3 4 4 4 4 4 5 5 4 2 2 3 3 2 1 1 1 2 2 2 2 3 3 3 3 3 3 4 3 3 4
5 5 4 4 4 4 4 4 4 3 3 3 3 4 4 4 4 4 4 3 3 3 2 1 1 1 0 0 1 1 2 2 2 3 3 3 3 3 3 3 3 3 3 3
Wind_Direction
252 255 246 240 232 228 234 245 255 258 256 252 240 234 225 220 204 181 162 152 145 155 160 164 171 177 183 185 185 187 185 190 192 192 194 197 199 203 207 213 217 218 220 220
244 242 242 244 239 235 237 243 249 256 257 249 233 221 214 214 205 191 185 170 157 155 166 171 177 182 184 186 185 185 188 191 189 190 192 193 193 199 203 209 216 216 221 221
242 236 239 240 236 235 237 240 245 249 248 215 215 219 221 215 209 201 201 189 175 172 176 179 183 186 187 189 187 186 189 190 189 191 193 194 197 200 205 210 213 217 222 222
244 231 237 243 223 235 238 240 243 245 231 219 223 221 225 225 216 206 200 190 182 184 179 179 182 182 184 183 185 188 189 190 190 191 191 192 197 201 206 211 216 222 224 228
237 235 240 235 216 220 230 239 236 230 223 213 200 216 221 208 204 195 188 180 179 179 174 172 176 174 178 184 185 186 185 187 189 192 194 195 200 202 206 213 219 226 230 230
235 243 243 232 186 211 236 238 218 216 214 202 203 231 213 165 162 158 165 167 169 164 161 168 167 168 173 180 182 185 184 186 188 192 197 196 196 198 205 210 218 226 229 232
234 241 243 220 169 197 227 230 160 210 213 213 228 268 149 154 158 151 149 154 154 158 160 159 161 160 164 168 182 183 179 182 186 190 198 195 189 191 199 207 216 230 231 233
230 239 237 173 203 223 270 359 210 218 218 220 226 160 152 149 150 150 151 153 152 149 140 140 149 156 162 170 176 184 183 178 176 180 193 179 178 188 199 208 216 228 228 235
233 239 279 255 260 283 289 274 265 252 242 217 197 184 169 164 159 155 155 152 144 135 127 127 142 158 165 171 174 178 177 171 169 172 178 176 187 196 206 216 230 242 239 241
244 241 247 258 274 288 283 276 269 258 240 220 210 185 171 170 164 155 150 147 145 136 131 128 132 136 141 150 162 167 171 172 170 168 169 160 203 210 215 225 237 253 257 250
245 245 257 250 267 281 290 285 262 247 235 217 193 180 177 166 160 159 155 150 150 143 138 131 124 121 125 141 161 163 163 172 180 171 148 149 148 263 240 275 298 288 282 269
252 249 256 259 267 268 261 261 240 219 218 205 190 182 171 164 166 162 153 145 142 138 138 133 126 116 114 130 154 170 171 171 174 170 155 165 152 132 61 9 38 4 341 315
268 273 273 268 268 265 252 239 215 202 197 185 179 172 165 166 165 158 153 152 149 144 139 129 119 109 104 116 132 144 153 168 194 184 174 183 191 200 203 109 146 213 313 329
258 257 255 251 253 247 231 210 190 183 179 170 164 159 157 156 151 150 151 150 147 138 130 118 111 102 98 114 126 136 155 153 188 181 183 185 196 218 245 261 238 329 136 145
256 256 246 245 240 224 204 187 178 176 169 164 159 157 154 151 144 137 133 135 132 127 122 112 107 98 89 118 138 154 168 162 164 164 183 191 204 231 247 271 298 324 39 99
251 244 225 217 216 205 190 185 181 177 171 167 159 153 143 134 129 125 127 139 141 136 127 115 109 102 103 127 142 150 145 117 153 171 181 193 217 250 269 281 303 327 338 1
232 223 215 209 207 196 190 188 186 180 172 164 158 149 141 136 131 127 132 137 135 136 133 127 118 110 118 130 148 153 146 138 161 188 167 225 297 314 309 302 313 323 341 27
238 226 217 207 200 191 185 178 171 168 166 160 159 155 149 146 142 139 142 139 138 133 124 120 113 127 138 136 145 150 150 153 160 139 96 344 334 317 303 308 318 316 317 93
208 193 183 179 180 175 168 163 161 157 152 151 150 149 148 146 147 143 142 143 142 137 127 121 132 150 142 125 138 174 165 159 161 160 201 157 263 299 313 312 306 309 316 327
142 150 157 157 159 161 158 152 148 146 146 146 145 145 147 148 149 146 145 142 134 121 128 122 132 132 135 129 228 162 143 126 78 48 343 319 317 318 319 313 312 322 328 329
129 129 135 141 143 145 148 148 146 143 143 149 150 147 146 146 147 144 143 136 125 124 129 129 129 120 121 109 208 132 114 101 67 1 330 327 323 321 325 315 306 303 304 304
128 127 127 133 142 141 141 143 142 139 141 145 148 146 145 149 151 147 144 137 131 138 150 138 127 94 37 277 180 147 103 55 353 327 316 305 297 305 318 318 314 312 308 303
119 121 125 132 137 135 134 136 139 140 142 146 150 152 153 150 151 151 151 152 147 145 160 135 107 110 258 228 220 211 216 257 277 288 293 295 302 303 297 298 303 304 304 303
122 126 129 128 128 129 132 133 135 138 140 142 149 152 156 155 151 147 135 130 130 140 149 118 130 195 244 228 244 257 267 276 281 287 293 297 295 293 297 302 305 304 302 298
126 125 124 128 132 135 136 137 136 139 144 144 146 151 153 145 140 135 133 131 138 155 158 156 175 209 217 240 267 289 286 286 294 298 301 306 305 304 306 309 311 313 316 309
123 124 121 124 122 127 136 142 142 141 141 139 142 147 144 136 131 130 132 133 138 152 160 162 174 203 215 253 288 293 295 297 302 308 323 320 316 314 319 322 319 321 319 314
124 120 119 118 119 124 128 133 131 128 130 137 136 135 137 135 134 132 130 131 136 137 141 161 180 183 175 287 327 333 337 336 334 338 342 343 344 342 338 332 329 332 331 328
Height
1455 1452 1452 1455 1456 1457 1459 1457 1459 1455 1455 1454 1457 1462 1466 1469 1472 1473 1475 1476 1477 1478 1480 1482 1484 1486 1488 1491 1493 1495 1497 1499 1501 1503 1505 1506 1507 1509 1510 1511 1512 1513 1513 1514
1459 1453 1453 1454 1452 1453 1454 1453 1453 1453 1454 1453 1458 1462 1466 1468 1470 1472 1473 1475 1476 1477 1478 1480 1481 1483 1486 1488 1490 1492 1494 1496 1498 1500 1501 1503 1504 1505 1506 1507 1509 1509 1510 1510
1459 1452 1454 1457 1449 1448 1448 1448 1450 1452 1451 1454 1458 1461 1464 1467 1469 1470 1472 1473 1474 1476 1477 1478 1479 1481 1483 1485 1487 1489 1491 1493 1495 1497 1498 1500 1501 1502 1503 1504 1505 1505 1506 1506
1457 1459 1468 1445 1441 1443 1445 1446 1446 1448 1450 1454 1458 1461 1464 1466 1467 1469 1471 1472 1473 1474 1475 1477 1478 1480 1481 1483 1485 1487 1488 1490 1492 1493 1495 1496 1497 1498 1499 1500 1501 1502 1502 1503
1457 1457 1450 1443 1441 1443 1446 1446 1445 1447 1451 1455 1459 1460 1461 1464 1466 1468 1469 1470 1472 1473 1473 1475 1476 1477 1479 1480 1482 1484 1486 1487 1489 1490 1491 1492 1493 1494 1495 1496 1496 1497 1498 1499
1456 1458 1455 1440 1439 1444 1446 1448 1446 1448 1451 1454 1457 1456 1456 1462 1465 1466 1468 1469 1470 1471 1472 1473 1474 1475 1476 1478 1479 1481 1482 1484 1486 1487 1488 1489 1490 1491 1492 1492 1493 1493 1494 1494
1454 1453 1442 1438 1442 1445 1452 1446 1447 1449 1451 1454 1455 1455 1458 1461 1463 1465 1466 1467 1468 1470 1471 1471 1472 1473 1474 1475 1477 1478 1480 1481 1483 1484 1486 1486 1487 1488 1489 1489 1489 1490 1490 1490
1450 1452 1447 1442 1442 1444 1446 1448 1449 1450 1452 1454 1455 1457 1458 1460 1462 1464 1465 1466 1467 1468 1469 1469 1470 1471 1472 1473 1474 1476 1478 1479 1480 1481 1483 1484 1484 1485 1486 1486 1486 1487 1487 1486
1442 1444 1445 1445 1445 1447 1448 1448 1449 1450 1452 1453 1455 1456 1458 1460 1461 1463 1464 1464 1465 1466 1467 1468 1469 1469 1470 1471 1472 1473 1475 1476 1477 1479 1480 1481 1481 1482 1483 1483 1484 1484 1483 1483
1443 1442 1444 1446 1446 1447 1448 1448 1449 1450 1452 1453 1454 1455 1457 1459 1460 1462 1462 1463 1464 1465 1466 1467 1468 1468 1468 1469 1470 1471 1473 1474 1475 1476 1477 1478 1479 1480 1481 1481 1481 1481 1480 1479
1443 1443 1445 1445 1447 1447 1447 1447 1448 1449 1451 1452 1452 1454 1456 1457 1459 1460 1461 1463 1464 1464 1465 1466 1466 1466 1466 1467 1468 1469 1470 1471 1473 1474 1475 1476 1476 1477 1478 1478 1478 1478 1477 1476
1440 1442 1444 1444 1445 1446 1445 1446 1446 1448 1450 1451 1452 1454 1455 1456 1458 1459 1460 1461 1462 1463 1464 1465 1465 1465 1466 1466 1466 1467 1468 1469 1471 1472 1473 1474 1475 1476 1476 1476 1475 1474 1474 1473
1442 1442 1442 1442 1443 1444 1444 1444 1445 1447 1448 1449 1451 1452 1453 1455 1456 1458 1459 1461 1461 1462 1463 1463 1463 1464 1465 1465 1465 1466 1467 1468 1470 1471 1472 1473 1474 1474 1474 1473 1473 1472 1472 1471
1441 1441 1440 1440 1441 1442 1442 1443 1444 1445 1447 1448 1450 1451 1452 1453 1455 1456 1458 1459 1460 1461 1461 1462 1462 1463 1464 1465 1465 1465 1467 1468 1469 1470 1471 1471 1472 1472 1472 1472 1472 1471 1470 1470
1438 1438 1438 1438 1438 1439 1440 1441 1442 1444 1446 1447 1449 1450 1451 1452 1453 1455 1456 1457 1458 1459 1460 1461 1461 1463 1463 1464 1464 1465 1466 1467 1468 1468 1469 1470 1470 1471 1471 1471 1471 1470 1469 1468
1435 1435 1436 1436 1436 1437 1439 1440 1441 1443 1445 1446 1447 1449 1450 1451 1452 1453 1455 1456 1457 1459 1460 1460 1461 1461 1463 1464 1464 1465 1466 1466 1466 1467 1468 1469 1469 1469 1469 1469 1469 1468 1468 1467
1432 1432 1433 1434 1435 1436 1437 1439 1440 1442 1443 1445 1446 1448 1449 1451 1452 1454 1455 1457 1458 1458 1459 1460 1461 1461 1463 1464 1464 1465 1466 1466 1466 1467 1467 1468 1468 1468 1468 1468 1467 1467 1467 1466
1429 1430 1431 1432 1433 1434 1436 1438 1439 1440 1441 1443 1445 1447 1449 1450 1452 1453 1455 1457 1458 1459 1459 1460 1460 1461 1463 1463 1464 1465 1466 1466 1466 1466 1466 1466 1466 1466 1466 1466 1466 1466 1465 1465
1428 1429 1429 1431 1432 1433 1435 1436 1438 1439 1441 1443 1444 1446 1449 1450 1452 1453 1455 1456 1457 1457 1458 1459 1460 1461 1462 1463 1463 1464 1465 1465 1465 1465 1466 1465 1465 1465 1465 1465 1464 1464 1464 1463
1427 1428 1429 1430 1432 1433 1435 1436 1438 1439 1441 1443 1445 1447 1449 1451 1452 1454 1455 1456 1457 1458 1458 1459 1459 1461 1462 1462 1463 1464 1464 1464 1464 1465 1465 1465 1465 1464 1464 1464 1463 1463 1462 1461
1428 1429 1429 1431 1432 1434 1435 1437 1438 1439 1441 1443 1445 1447 1449 1451 1452 1454 1455 1456 1457 1458 1458 1459 1460 1461 1462 1462 1463 1463 1464 1464 1464 1464 1464 1464 1463 1463 1463 1462 1462 1461 1460 1460
1429 1429 1430 1431 1433 1434 1436 1437 1439 1440 1442 1443 1446 1447 1449 1450 1452 1453 1454 1456 1457 1458 1459 1460 1461 1461 1461 1462 1463 1463 1463 1463 1463 1463 1463 1462 1462 1461 1461 1460 1460 1459 1458 1457
1430 1430 1431 1432 1434 1435 1437 1438 1439 1440 1442 1444 1445 1447 1449 1450 1451 1452 1454 1456 1457 1458 1459 1460 1460 1461 1461 1462 1462 1462 1462 1462 1462 1462 1461 1461 1460 1460 1459 1458 1458 1457 1456 1455
1430 1431 1432 1434 1435 1436 1437 1439 1440 1441 1443 1445 1446 1448 1449 1450 1451 1453 1454 1455 1456 1457 1458 1459 1460 1460 1460 1461 1462 1462 1461 1461 1461 1460 1460 1459 1458 1458 1457 1456 1456 1455 1454 1453
1431 1432 1433 1434 1436 1437 1438 1439 1441 1442 1444 1445 1447 1448 1449 1450 1452 1453 1454 1455 1456 1457 1458 1458 1459 1459 1460 1460 1460 1460 1460 1460 1459 1459 1458 1457 1456 1455 1455 1454 1453 1452 1451 1450
1433 1434 1435 1436 1437 1438 1439 1440 1441 1443 1444 1446 1447 1448 1449 1450 1452 1453 1454 1455 1455 1456 1457 1458 1459 1459 1459 1459 1459 1459 1459 1458 1457 1456 1455 1454 1453 1453 1452 1451 1450 1449 1448 1447
1434 1435 1436 1437 1438 1439 1440 1441 1442 1444 1445 1446 1447 1448 1449 1451 1452 1453 1454 1455 1456 1457 1458 1458 1458 1458 1458 1458 1458 1457 1457 1456 1455 1454 1453 1452 1451 1450 1449 1448 1448 1446 1445 1444